When you browse on this site, cookies collect data to enhance your experience and personalize the content and advertising you see.
Visit our Privacy Policy to learn more. By continuing to use the site, you agree to this use of cookies and data.

Hourly Weather Broceni

Today, 9 July, Thursday

Time Temperature Precipitation Wind Pressure Humidity
00:00 +8°C° 0 mm 3 mps 748 mmHg 92%
01:00 +8°C° 0 mm 3 mps 748 mmHg 92%
02:00 +8°C° 0 mm 3 mps 748 mmHg 93%
03:00 +8°C° 0 mm 2 mps 748 mmHg 93%
04:00 +8°C° 0 mm 2 mps 748 mmHg 93%
05:00 +8°C° 0 mm 2 mps 748 mmHg 94%
06:00 +10°C° 0 mm 3 mps 748 mmHg 83%
07:00 +13°C° 0 mm 3 mps 749 mmHg 72%
08:00 +16°C° 0 mm 3 mps 749 mmHg 62%
09:00 +15°C° 0.1 mm 4 mps 750 mmHg 62%
10:00 +17°C° 0.1 mm 4 mps 750 mmHg 62%
11:00 +17°C° 0.1 mm 4 mps 750 mmHg 62%
12:00 +18°C° 0.3 mm 4 mps 750 mmHg 58%
13:00 +19°C° 0.3 mm 4 mps 751 mmHg 54%
14:00 +19°C° 0.3 mm 4 mps 751 mmHg 50%
15:00 +19°C° 0 mm 4 mps 751 mmHg 51%
16:00 +19°C° 0 mm 4 mps 751 mmHg 51%
17:00 +18°C° 0 mm 4 mps 751 mmHg 51%
18:00 +17°C° 0 mm 3 mps 751 mmHg 59%
19:00 +16°C° 0 mm 2 mps 750 mmHg 67%
20:00 +14°C° 0 mm 1 mps 750 mmHg 75%
21:00 +13°C° 0 mm 1 mps 750 mmHg 79%
22:00 +12°C° 0 mm 1 mps 750 mmHg 83%
23:00 +11°C° 0 mm 1 mps 750 mmHg 88%

Tomorrow, 10 July, Friday

Time Temperature Precipitation Wind Pressure Humidity
00:00 +11°C° 0 mm 1 mps 750 mmHg 88%
01:00 +10°C° 0 mm 2 mps 749 mmHg 88%
02:00 +12°C° 0 mm 2 mps 749 mmHg 88%
03:00 +12°C° 0.1 mm 2 mps 748 mmHg 90%
04:00 +12°C° 0.1 mm 2 mps 748 mmHg 93%
05:00 +12°C° 0.1 mm 2 mps 747 mmHg 95%
06:00 +12°C° 0.2 mm 2 mps 747 mmHg 95%
07:00 +11°C° 0.2 mm 3 mps 747 mmHg 94%
08:00 +11°C° 0.2 mm 3 mps 746 mmHg 94%
09:00 +12°C° 0.1 mm 3 mps 747 mmHg 92%
10:00 +13°C° 0.1 mm 2 mps 747 mmHg 91%
11:00 +14°C° 0.1 mm 2 mps 747 mmHg 89%
12:00 +15°C° 0 mm 1 mps 747 mmHg 85%
13:00 +16°C° 0 mm 1 mps 747 mmHg 81%
14:00 +17°C° 0 mm 0 mps 747 mmHg 77%
15:00 +19°C° 0.1 mm 1 mps 747 mmHg 75%
16:00 +20°C° 0.1 mm 1 mps 747 mmHg 74%
17:00 +20°C° 0.1 mm 1 mps 747 mmHg 72%
18:00 +19°C° 0.3 mm 1 mps 747 mmHg 80%
19:00 +18°C° 0.3 mm 1 mps 747 mmHg 87%
20:00 +16°C° 0.3 mm 2 mps 747 mmHg 94%
21:00 +15°C° 0.5 mm 1 mps 746 mmHg 95%
22:00 +15°C° 0.5 mm 1 mps 746 mmHg 96%
23:00 +14°C° 0.5 mm 1 mps 746 mmHg 97%

Day after tomorrow, 11 July, Saturday

Time Temperature Precipitation Wind Pressure Humidity
00:00 +14°C° 1.2 mm 1 mps 745 mmHg 98%
01:00 +14°C° 1.2 mm 1 mps 745 mmHg 98%
02:00 +14°C° 1.2 mm 1 mps 745 mmHg 98%
03:00 +13°C° 0.1 mm 2 mps 745 mmHg 97%
04:00 +12°C° 0.1 mm 3 mps 746 mmHg 97%
05:00 +12°C° 0.1 mm 4 mps 746 mmHg 96%
06:00 +13°C° 0 mm 4 mps 747 mmHg 92%
07:00 +13°C° 0 mm 5 mps 748 mmHg 88%
08:00 +14°C° 0 mm 5 mps 748 mmHg 84%
09:00 +15°C° 0 mm 5 mps 749 mmHg 75%
10:00 +16°C° 0 mm 5 mps 750 mmHg 66%
11:00 +17°C° 0 mm 6 mps 751 mmHg 57%
12:00 +17°C° 0 mm 5 mps 751 mmHg 57%
13:00 +19°C° 0 mm 5 mps 752 mmHg 56%
14:00 +19°C° 0 mm 5 mps 752 mmHg 55%
15:00 +17°C° 0 mm 5 mps 752 mmHg 58%
16:00 +17°C° 0 mm 5 mps 753 mmHg 60%
17:00 +16°C° 0 mm 5 mps 753 mmHg 63%
18:00 +15°C° 0 mm 4 mps 753 mmHg 67%
19:00 +14°C° 0 mm 4 mps 753 mmHg 71%
20:00 +13°C° 0 mm 3 mps 753 mmHg 76%
21:00 +12°C° 0 mm 3 mps 754 mmHg 80%
22:00 +11°C° 0 mm 3 mps 754 mmHg 85%
23:00 +10°C° 0 mm 2 mps 754 mmHg 90%

12 July, Sunday

Time Temperature Precipitation Wind Pressure Humidity
00:00 +9°C° 0 mm 2 mps 754 mmHg 92%
01:00 +9°C° 0 mm 2 mps 754 mmHg 94%
02:00 +9°C° 0 mm 2 mps 754 mmHg 96%
03:00 +9°C° 0 mm 2 mps 754 mmHg 96%
04:00 +9°C° 0 mm 2 mps 754 mmHg 96%
05:00 +9°C° 0 mm 2 mps 754 mmHg 95%
06:00 +11°C° 0 mm 3 mps 754 mmHg 88%
07:00 +13°C° 0 mm 3 mps 754 mmHg 81%
08:00 +16°C° 0 mm 3 mps 754 mmHg 73%
09:00 +17°C° 0 mm 3 mps 755 mmHg 67%
10:00 +18°C° 0 mm 3 mps 755 mmHg 61%
11:00 +19°C° 0 mm 3 mps 755 mmHg 55%
12:00 +19°C° 0 mm 4 mps 755 mmHg 55%
13:00 +19°C° 0 mm 4 mps 755 mmHg 55%
14:00 +19°C° 0 mm 4 mps 755 mmHg 55%
15:00 +18°C° 0 mm 4 mps 755 mmHg 57%
16:00 +18°C° 0 mm 3 mps 755 mmHg 59%
17:00 +17°C° 0 mm 3 mps 755 mmHg 61%
18:00 +16°C° 0 mm 3 mps 755 mmHg 66%
19:00 +15°C° 0 mm 2 mps 755 mmHg 72%
20:00 +14°C° 0 mm 2 mps 755 mmHg 78%
21:00 +13°C° 0 mm 1 mps 755 mmHg 83%
22:00 +12°C° 0 mm 1 mps 755 mmHg 88%
23:00 +10°C° 0 mm 1 mps 755 mmHg 92%

13 July, Monday

Time Temperature Precipitation Wind Pressure Humidity
00:00 +10°C° 0 mm 1 mps 755 mmHg 93%
01:00 +10°C° 0 mm 1 mps 755 mmHg 94%
02:00 +9°C° 0 mm 1 mps 754 mmHg 95%
03:00 +9°C° 0 mm 0 mps 754 mmHg 95%
04:00 +9°C° 0 mm 0 mps 754 mmHg 94%
05:00 +9°C° 0 mm 0 mps 754 mmHg 94%
06:00 +11°C° 0 mm 0 mps 754 mmHg 86%
07:00 +13°C° 0 mm 0 mps 754 mmHg 79%
08:00 +14°C° 0 mm 0 mps 754 mmHg 72%
09:00 +16°C° 0 mm 0 mps 754 mmHg 65%
10:00 +19°C° 0 mm 1 mps 754 mmHg 58%
11:00 +21°C° 0 mm 1 mps 754 mmHg 51%
12:00 +21°C° 0 mm 1 mps 754 mmHg 49%
13:00 +22°C° 0 mm 1 mps 754 mmHg 46%
14:00 +21°C° 0 mm 2 mps 754 mmHg 44%
15:00 +21°C° 0 mm 2 mps 754 mmHg 46%
16:00 +21°C° 0 mm 3 mps 754 mmHg 49%
17:00 +21°C° 0 mm 3 mps 753 mmHg 51%
18:00 +19°C° 0 mm 3 mps 753 mmHg 58%
19:00 +17°C° 0 mm 2 mps 753 mmHg 66%
20:00 +16°C° 0 mm 2 mps 753 mmHg 73%
21:00 +14°C° 0 mm 2 mps 753 mmHg 80%
22:00 +12°C° 0 mm 2 mps 753 mmHg 87%
23:00 +10°C° 0 mm 2 mps 753 mmHg 94%

14 July, Tuesday

Time Temperature Precipitation Wind Pressure Humidity
00:00 +10°C° 0 mm 2 mps 753 mmHg 95%
01:00 +10°C° 0 mm 2 mps 753 mmHg 95%
02:00 +10°C° 0 mm 2 mps 753 mmHg 96%
03:00 +10°C° 0 mm 2 mps 753 mmHg 96%
04:00 +10°C° 0 mm 2 mps 752 mmHg 96%
05:00 +10°C° 0 mm 2 mps 752 mmHg 96%
06:00 +13°C° 0 mm 2 mps 752 mmHg 87%
07:00 +14°C° 0 mm 3 mps 752 mmHg 79%
08:00 +18°C° 0 mm 3 mps 752 mmHg 70%
09:00 +19°C° 0 mm 3 mps 752 mmHg 65%
10:00 +20°C° 0 mm 4 mps 752 mmHg 59%
11:00 +21°C° 0 mm 4 mps 752 mmHg 54%
12:00 +22°C° 0 mm 4 mps 752 mmHg 52%
13:00 +22°C° 0 mm 4 mps 752 mmHg 51%
14:00 +22°C° 0 mm 5 mps 751 mmHg 49%
15:00 +22°C° 0 mm 4 mps 751 mmHg 50%
16:00 +22°C° 0 mm 4 mps 751 mmHg 51%
17:00 +22°C° 0 mm 4 mps 751 mmHg 52%
18:00 +20°C° 0 mm 4 mps 751 mmHg 58%
19:00 +19°C° 0 mm 3 mps 751 mmHg 65%
20:00 +18°C° 0 mm 3 mps 751 mmHg 71%
21:00 +16°C° 0 mm 3 mps 751 mmHg 73%
22:00 +14°C° 0 mm 3 mps 751 mmHg 75%
23:00 +13°C° 0 mm 3 mps 751 mmHg 77%
Show more